Tracking 26922 objects as of 30-Jan-2023
HD Live streaming from Space Station
objects crossing your sky now

ONEWEB-0510

Track ONEWEB-0510 now!
10-day predictions
ONEWEB-0510 is classified as:


NORAD ID: 54128
Int'l Code: 2022-138R
Perigee: 664.7 km
Apogee: 678.2 km
Inclination: 86.9 °
Period: 98.0 minutes
Semi major axis: 7042 km
RCS: Unknown
Launch date: October 22, 2022
Source: United Kingdom (UK)
Launch site: SRIHARIKOTA (SRI)
Your satellite tracking list
Your tracking list is empty




NASA's NSSDC Master Catalog

Two Line Element Set (TLE):
1 54128U 22138R   23029.92673528  .00001088  00000-0  18181-3 0  9993
2 54128  86.9036 180.6808 0009586 325.7549  34.3048 14.68971356 15501
Source of the keplerian elements: AFSPC